Vorticity
4 5 5 6 6 6 6 5 6 5 6 6 6 5 5 5 5 6 5 6 7 6 5 5 7 10 9 6 9 16 15 7 4 5 6 8 8 7 5 3 8 10 5 4 5 7 7 5 5 8 12 8 5 3 2 2 1 2 3 5 2 4 7 1 5 -1 -6 6 7 6 8 5 8 11 10 11 8 7 9 6 6 6 5 6 6 8 10 7
4 4 5 5 6 6 7 6 6 6 5 5 5 5 5 5 5 6 6 6 6 6 7 5 5 6 10 9 6 9 15 16 8 2 5 9 8 8 10 5 5 9 7 4 5 7 7 6 5 6 9 9 6 3 2 0 2 2 2 6 -1 -3 5 5 5 1 -1 3 2 3 7 6 6 10 11 10 11 12 12 11 8 6 5 5 4 6 7 7
5 6 5 6 6 7 7 7 7 7 6 5 5 4 4 5 5 6 6 7 6 5 6 7 6 5 6 10 9 6 8 16 14 6 6 7 7 7 8 9 8 9 9 4 5 6 6 6 5 5 6 7 7 4 0 0 4 2 3 5 0 9 14 6 4 4 5 4 3 5 6 9 4 5 11 7 8 12 11 11 13 10 6 7 8 7 6 6
6 6 6 6 6 7 7 8 8 8 8 7 6 5 4 5 5 6 6 7 7 5 5 6 7 6 5 6 10 10 6 8 14 15 12 4 4 8 6 7 6 9 10 4 4 5 5 6 5 5 5 5 7 5 1 2 5 0 7 4 -12 7 17 5 5 5 6 4 4 6 5 7 4 5 9 4 5 8 7 7 10 11 8 9 9 9 7 5
6 6 6 7 7 7 7 8 8 8 8 8 8 7 6 5 5 6 6 7 7 6 6 6 7 7 6 5 6 10 9 8 11 15 17 10 3 6 8 7 3 5 10 7 5 4 5 6 5 5 6 6 6 6 3 2 5 0 8 6 -18 -7 8 5 6 5 7 5 5 7 5 6 7 11 9 6 7 3 5 9 8 7 7 10 9 8 8 6
6 7 6 7 7 7 7 7 8 8 8 8 9 8 7 6 6 5 6 6 6 6 6 6 6 6 7 7 5 6 9 9 9 9 15 18 10 4 6 9 6 2 6 8 7 6 6 6 7 7 5 7 7 6 5 2 5 3 4 7 -3 -1 5 5 7 7 8 5 5 5 5 7 8 11 9 10 10 3 5 8 6 6 7 10 10 8 7 8
7 7 7 7 6 6 6 7 7 8 9 9 9 8 8 7 6 6 5 5 6 6 6 7 6 6 6 7 6 6 6 7 11 9 8 14 16 11 4 6 11 5 3 6 8 8 7 6 8 9 6 6 9 6 5 4 5 4 3 6 7 5 4 5 6 7 7 5 5 6 6 8 8 9 9 11 10 3 5 5 4 5 7 11 11 8 5 5
7 6 7 7 7 6 5 6 7 8 8 9 9 9 8 7 7 6 6 5 5 6 5 6 6 7 6 6 7 7 6 7 10 11 8 8 13 18 11 4 7 9 6 3 5 9 8 8 8 9 9 7 8 6 4 5 6 5 3 4 6 6 5 5 5 7 6 4 5 7 6 6 8 10 8 8 8 4 6 10 9 9 9 9 11 10 5 4
6 6 6 7 7 7 6 6 6 7 8 9 9 9 9 9 9 7 7 7 6 6 6 6 6 7 8 6 6 6 9 8 5 8 10 10 9 15 19 12 5 5 8 4 3 9 10 9 9 9 9 7 7 7 5 4 5 6 4 4 5 6 5 3 4 6 5 4 7 8 6 6 8 11 8 8 9 9 9 11 12 11 12 10 9 10 7 6
6 6 6 6 7 7 6 6 6 7 7 8 8 9 9 9 10 9 9 9 8 8 7 7 6 6 8 7 6 6 8 9 6 6 8 10 9 9 14 17 12 4 5 6 3 5 9 8 7 8 9 9 7 5 5 4 3 5 6 6 6 6 6 4 5 6 3 4 8 7 4 4 6 8 9 8 10 10 8 10 13 11 12 12 9 8 8 9
5 5 6 6 6 7 6 6 5 6 6 6 6 7 7 7 8 9 9 10 9 9 8 7 7 6 7 7 8 8 8 9 10 7 6 8 9 9 9 15 18 10 3 5 5 3 6 8 5 5 8 9 8 7 5 3 2 4 5 7 7 5 7 6 5 3 2 4 6 5 3 3 4 6 8 7 7 8 7 9 13 11 10 11 10 8 8 11
5 5 6 5 5 6 6 6 5 5 5 6 5 4 5 5 6 6 7 9 9 10 9 9 8 7 7 6 8 10 6 6 10 8 7 7 6 9 9 11 17 17 8 2 4 4 4 7 6 5 7 8 8 7 6 3 4 5 3 7 8 4 9 9 5 2 1 3 3 2 3 5 5 5 5 4 6 8 7 6 8 9 8 8 10 10 9 9
4 4 5 5 6 5 6 6 6 6 5 5 5 4 4 3 3 4 5 6 7 8 9 10 9 8 7 6 6 9 5 3 8 9 8 7 6 8 9 10 13 19 18 6 3 4 3 5 6 6 5 8 7 3 6 5 5 7 3 7 8 4 10 9 4 2 1 4 4 1 2 9 13 10 7 5 9 9 4 5 9 6 4 6 7 8 9 9
5 4 4 4 4 5 6 6 6 6 6 6 5 4 3 2 2 2 2 4 5 6 7 9 10 9 9 7 4 6 7 6 6 6 6 6 5 6 7 9 10 14 21 16 6 2 3 3 4 6 4 7 7 1 9 6 2 8 3 7 10 5 10 8 2 1 2 3 1 1 2 5 11 11 9 7 7 7 4 7 9 4 5 8 8 8 8 9
9 8 7 5 4 4 5 5 6 6 6 7 6 5 4 3 2 2 2 2 3 4 5 6 8 10 10 9 6 4 6 6 6 7 6 6 6 6 5 7 9 10 16 20 16 6 3 3 4 6 4 6 6 3 12 8 3 9 4 6 11 9 10 6 3 0 1 6 0 -1 2 2 5 7 11 10 6 6 6 5 4 3 6 5 8 11 8 7
9 9 9 9 8 6 5 5 5 5 6 6 7 7 5 5 4 3 2 2 2 2 3 5 6 7 8 9 9 8 6 4 5 7 8 8 7 8 7 7 8 8 10 16 20 15 7 3 3 5 5 5 2 3 13 7 2 8 5 6 10 12 8 1 11 10 -3 3 4 -1 1 3 7 8 11 11 5 6 8 6 6 6 5 3 6 8 6 7
10 10 10 10 10 10 9 7 6 4 5 5 6 7 6 6 5 4 4 3 3 2 2 4 4 6 7 7 8 9 8 6 5 5 7 8 6 8 10 8 7 6 6 8 15 20 17 9 4 4 5 6 2 3 10 7 4 5 3 8 9 12 11 -3 9 21 4 -2 2 4 3 -0 -1 4 15 15 5 6 6 4 9 6 3 5 5 4 7 7
10 11 11 11 10 9 10 11 10 8 6 5 5 6 7 7 6 5 4 4 4 3 2 2 3 6 6 6 6 7 8 7 7 6 5 6 5 7 10 8 6 5 5 6 9 14 20 19 11 5 3 5 6 3 5 7 9 5 -1 5 6 7 13 0 -1 17 16 1 -3 3 5 1 -4 -6 9 15 4 5 4 1 7 6 3 5 2 4 12 9
9 10 10 11 12 10 10 11 12 11 10 8 5 4 5 6 7 6 5 5 4 4 4 3 3 4 5 7 6 5 8 7 7 9 6 4 4 6 8 8 6 6 6 7 8 9 15 21 17 12 8 7 8 5 4 5 7 6 -0 2 4 4 10 7 5 13 18 10 1 0 1 7 10 -3 2 16 8 4 5 3 7 5 5 8 7 7 9 8
8 9 9 9 11 10 10 11 12 12 13 12 10 8 5 4 6 8 6 5 5 4 5 4 3 3 4 6 5 4 7 6 5 8 9 5 3 4 6 7 6 7 8 7 8 8 11 16 19 20 14 9 9 7 7 6 3 5 3 2 5 6 2 -3 4 9 12 16 11 5 1 3 12 7 6 17 12 4 4 3 5 6 8 9 7 7 5 4
8 8 9 9 9 9 9 10 11 12 13 13 13 12 10 7 5 6 7 7 7 5 5 5 4 3 4 4 5 7 7 6 5 5 8 8 4 4 4 5 7 6 8 9 7 8 8 9 18 26 20 12 10 9 9 8 4 4 4 5 4 6 4 -5 2 7 3 13 12 5 7 3 3 6 3 12 19 12 5 5 6 6 6 7 5 4 4 6
7 7 8 8 9 9 9 8 9 10 12 12 13 14 14 13 10 6 5 5 8 8 5 5 6 4 4 4 4 8 5 3 7 5 6 8 7 6 5 4 6 6 7 7 5 7 7 7 14 23 22 16 13 10 10 8 8 5 1 6 5 5 10 3 4 8 4 19 22 3 1 1 0 5 -4 -1 13 12 5 5 6 7 4 4 8 4 1 6
7 6 6 7 6 7 8 8 8 8 9 11 11 13 13 14 15 13 8 4 5 10 8 4 6 5 4 6 4 5 5 3 6 6 6 8 6 7 8 6 5 6 7 5 5 7 6 8 13 17 20 19 15 12 11 9 10 9 4 7 6 3 10 6 0 5 5 13 18 5 0 -0 -2 7 6 -1 5 12 14 10 3 5 9 5 4 3 3 6
8 8 7 6 6 5 6 6 6 7 8 9 9 11 12 12 14 16 16 10 2 6 12 7 5 6 6 8 4 2 6 6 5 5 5 7 6 6 7 7 7 7 6 5 6 7 4 4 8 10 13 14 15 14 12 10 8 8 8 11 10 3 6 6 -1 6 11 3 0 -1 0 6 -0 -3 8 9 6 9 8 8 6 1 5 6 -1 2 8 8
12 12 11 10 9 8 6 6 4 4 5 6 7 8 10 11 12 14 16 19 10 2 10 12 7 7 6 6 6 4 5 6 6 6 5 6 6 6 6 6 8 7 6 6 7 8 5 3 4 6 9 10 13 14 11 10 9 7 7 8 11 8 3 4 -5 -3 13 15 15 11 -3 5 11 -2 -0 3 -2 6 5 -1 5 4 1 2 -1 3 10 8
11 13 14 14 13 12 12 11 7 5 5 4 4 5 8 8 10 12 12 17 18 7 6 14 11 9 7 6 8 7 3 4 7 6 6 7 5 6 6 5 7 7 7 8 6 7 5 4 5 5 7 8 9 11 10 10 9 7 6 5 9 10 5 6 -4 -17 -5 3 11 25 13 5 11 6 6 4 -7 5 22 13 2 3 5 3 3 5 6 9
7 8 11 13 13 13 15 16 14 12 9 6 5 4 5 5 5 11 12 10 17 13 5 10 12 10 9 8 9 9 5 4 6 5 6 9 5 5 6 4 5 7 8 8 5 7 7 5 6 6 5 6 5 9 11 10 8 5 9 8 8 10 6 8 5 -12 -13 -15 -18 3 16 12 15 10 8 19 16 2 11 25 13 1 4 3 4 5 3 9
9 8 9 13 13 11 11 15 16 17 15 11 10 7 5 5 2 6 10 7 11 13 6 9 13 10 8 7 8 11 10 6 4 4 7 10 7 5 5 5 4 6 8 8 5 7 10 7 6 8 7 6 5 8 10 10 9 10 14 14 11 10 6 7 9 -0 -5 -3 -7 -7 -5 -2 18 25 3 3 25 9 -6 19 22 -1 1 6 4 6 4 5
16 15 14 16 18 16 13 12 13 18 20 16 14 13 9 8 5 5 7 4 8 14 9 8 12 13 12 10 8 10 10 9 6 5 5 7 8 6 6 7 6 5 5 8 6 5 8 7 7 9 8 7 7 6 7 9 12 14 14 14 9 7 9 7 7 8 2 5 10 7 -5 -15 2 28 17 -6 1 -0 -12 13 27 5 1 8 5 7 5 2
26 25 23 22 22 23 22 18 13 13 18 21 20 17 13 12 10 10 8 2 5 14 11 9 10 12 15 14 12 13 11 8 7 6 5 5 8 8 6 5 6 5 4 4 6 6 5 4 6 9 7 6 7 6 6 6 10 13 10 9 8 10 14 7 4 8 4 2 5 6 6 -6 -10 11 21 7 -3 -7 -13 1 18 10 6 8 4 5 6 2
34 34 34 33 31 31 31 31 27 18 15 19 21 21 18 15 13 11 10 7 11 14 7 7 9 7 10 13 12 13 13 11 7 8 8 5 5 6 5 5 3 3 4 3 3 4 6 5 3 6 8 5 4 5 7 6 7 9 8 7 8 15 16 8 8 5 -1 6 9 7 10 -1 -4 14 18 9 7 6 4 6 13 14 14 12 2 2 7 3
31 33 34 36 38 38 35 35 36 32 26 21 21 25 23 19 16 11 12 18 23 19 5 2 5 2 3 8 10 11 11 12 10 7 8 8 6 5 5 8 6 2 3 6 6 3 4 7 4 4 7 6 4 3 5 6 5 5 5 6 8 13 14 8 9 4 -2 9 13 11 10 -10 -11 11 17 15 14 4 -2 6 15 14 10 11 4 2 8 6
15 18 20 23 29 36 40 38 37 36 38 33 26 27 27 26 23 16 18 22 16 9 5 3 4 5 4 4 11 17 16 17 17 11 9 9 8 6 5 8 9 6 5 7 9 5 3 6 6 6 5 4 5 6 5 4 4 4 1 3 9 9 8 9 9 5 5 13 15 15 7 -8 -5 5 9 21 24 11 -0 -0 13 16 7 8 9 3 4 5
3 4 8 11 12 23 38 42 40 36 38 39 35 33 33 31 27 19 21 24 13 7 7 4 1 4 7 4 8 15 16 17 18 15 12 11 9 7 4 5 6 6 7 7 9 7 5 5 5 7 8 4 3 5 8 6 3 5 3 1 8 9 5 7 8 4 6 10 13 15 4 -1 10 8 6 16 18 23 26 13 16 22 5 -4 6 9 3 3
0 -1 3 6 3 13 33 43 42 36 34 36 36 34 35 38 37 30 27 22 16 14 7 5 11 10 10 10 8 8 11 12 13 12 11 12 12 10 7 8 7 4 5 6 7 8 7 6 5 8 11 8 6 5 7 9 5 4 5 2 5 12 9 6 6 5 10 13 10 12 11 10 17 13 13 19 8 10 24 18 18 26 11 -6 3 13 7 3
1 2 5 5 -1 8 36 48 43 38 34 32 34 34 36 45 39 31 36 27 17 18 12 15 24 17 14 23 20 12 9 14 18 14 10 9 12 15 13 10 9 6 5 6 7 8 7 4 4 7 11 9 6 6 4 5 9 7 5 5 7 13 11 5 5 5 7 13 10 5 7 14 21 19 18 24 17 11 16 15 15 24 22 6 -1 5 9 8
4 5 8 4 -5 6 38 56 49 41 32 24 28 29 29 34 23 13 26 28 19 18 14 15 18 12 12 24 37 40 25 15 18 19 16 12 10 16 18 15 13 9 6 6 6 9 9 6 8 7 6 9 6 6 8 3 6 9 3 5 10 9 9 8 6 7 5 7 8 2 -2 5 15 18 18 19 22 24 21 15 13 18 22 16 4 1 7 9
6 9 13 5 -3 7 36 61 59 44 31 18 18 24 25 27 24 18 21 23 23 20 13 13 18 21 14 0 13 44 37 12 10 16 17 15 10 11 14 14 14 10 7 6 2 5 3 2 19 20 -0 3 10 4 8 7 3 7 3 3 11 7 7 10 6 7 8 5 9 9 1 2 4 9 19 21 16 24 27 18 13 13 16 19 12 3 5 6
9 15 13 4 3 7 30 64 64 43 35 24 12 16 22 17 16 24 29 32 32 23 14 15 15 19 18 -7 -16 16 34 17 9 10 10 20 28 18 10 11 12 9 7 6 2 5 3 -9 12 40 16 -4 9 6 3 9 4 4 5 0 7 8 4 9 9 6 7 4 5 10 11 16 11 1 12 20 15 18 22 14 9 6 11 19 12 4 9 7
13 15 9 6 6 6 31 66 59 34 31 29 16 10 10 8 11 22 32 39 39 27 17 17 16 12 16 8 -14 -5 22 20 13 5 -13 9 44 30 10 11 13 14 9 8 6 5 10 -11 -19 32 47 8 5 10 -1 8 7 0 7 4 1 6 1 3 9 7 7 6 2 5 13 25 32 23 14 16 19 19 16 14 14 9 11 16 8 4 11 10
13 13 11 10 5 8 37 52 36 22 19 16 17 16 14 16 19 23 29 37 40 35 24 18 21 15 13 16 -3 -12 7 11 20 14 -30 -13 43 31 8 10 6 14 15 12 13 -0 7 1 -40 -3 56 24 0 15 5 5 11 1 4 8 2 3 2 -1 3 5 8 9 5 0 -8 -6 19 35 23 15 23 22 12 12 14 12 12 12 7 5 7 10
13 14 14 9 2 13 32 28 24 31 21 6 6 11 15 16 13 14 25 37 40 42 40 31 26 16 11 18 9 3 14 9 16 17 -24 -11 36 17 2 13 -0 6 15 11 17 3 3 13 -36 -33 46 41 -6 4 9 1 10 8 2 7 6 3 6 3 -1 3 6 6 9 6 -8 -12 7 26 24 19 22 18 8 6 6 10 14 8 7 9 4 2
13 15 17 9 5 16 17 13 27 35 25 18 12 7 10 11 10 7 9 24 34 37 47 49 41 27 14 11 5 2 17 19 11 2 -14 2 25 2 -3 14 2 4 13 6 15 10 2 19 -16 -51 15 61 19 2 14 2 2 13 4 2 7 1 4 8 2 3 4 2 8 6 -1 -1 -2 7 19 19 19 19 12 10 10 11 14 10 8 8 1 -0
10 16 22 8 7 20 11 7 22 23 23 32 25 17 17 14 19 20 6 7 16 18 31 44 47 44 27 12 4 -9 3 31 18 -7 1 18 15 2 4 9 1 4 10 4 12 14 1 14 10 -42 -36 25 27 6 16 7 -5 8 7 1 7 4 3 7 5 5 4 3 8 4 6 9 -5 2 23 17 16 25 16 10 12 11 14 15 8 -1 -4 4
10 18 24 10 12 24 9 4 15 12 19 31 24 21 22 14 18 25 17 10 7 6 16 27 37 48 37 26 27 2 -9 25 21 -11 7 28 13 5 10 8 4 2 6 8 8 15 7 2 16 -4 -37 -12 14 6 12 13 -1 2 7 3 5 6 6 5 5 8 5 5 7 -1 5 14 4 7 15 3 9 28 23 14 13 11 11 6 1 1 2 7
11 15 21 16 17 17 7 8 13 7 13 26 26 23 22 18 18 22 22 20 15 10 11 16 28 37 27 26 47 32 -5 4 16 2 7 19 15 12 6 5 13 5 3 14 8 10 15 2 5 12 -10 -10 16 17 10 16 13 4 3 5 4 5 7 5 5 7 5 7 8 -2 -7 2 10 14 2 -9 6 24 25 21 14 9 3 -7 -4 12 14 9
8 12 23 27 19 10 9 13 11 10 13 15 19 21 19 20 20 20 23 23 20 17 13 16 28 31 21 16 35 46 22 0 4 14 17 12 13 16 6 0 11 8 2 12 13 8 12 9 6 11 -2 -16 -2 12 7 7 12 8 4 7 5 4 6 6 6 6 4 6 8 6 -2 -6 6 11 -8 -12 6 13 18 26 20 11 6 -2 1 10 9 7
5 7 21 33 25 12 12 12 7 12 15 8 11 16 13 15 17 16 21 24 25 26 23 20 23 28 32 23 16 31 41 21 0 6 20 21 13 10 10 8 6 6 5 5 10 13 10 8 8 13 11 -6 -15 -1 6 5 7 6 5 7 6 5 5 5 7 6 6 7 5 8 8 1 2 1 -10 -5 9 9 10 19 20 16 14 9 5 6 8 9
7 4 12 27 30 17 11 13 10 12 12 7 10 11 7 13 17 14 17 21 23 25 25 22 17 20 31 30 14 15 33 32 13 4 15 30 25 3 0 16 12 2 7 8 7 11 8 7 7 9 15 10 -2 -4 -2 1 7 6 4 6 8 10 8 6 7 5 5 10 7 5 8 7 6 -1 -4 5 12 9 6 6 13 18 14 8 6 7 11 10
6 5 9 19 29 22 13 16 14 11 10 7 7 7 7 12 14 13 15 17 19 23 24 21 14 15 29 33 19 12 22 28 21 11 8 22 30 8 -5 13 18 3 2 8 9 7 3 7 12 9 9 9 8 7 -1 -4 3 7 6 4 2 5 9 10 10 8 6 8 7 7 6 7 10 5 2 8 10 9 11 11 15 18 12 12 13 7 6 5
4 7 9 10 26 29 18 16 16 12 9 8 8 7 7 10 12 14 15 13 16 23 24 24 20 18 30 40 27 13 17 24 24 18 10 13 22 14 6 14 15 6 3 4 6 6 5 11 12 7 8 8 5 8 8 -0 -4 0 6 5 -1 -2 1 4 6 7 9 9 9 10 5 3 11 9 5 11 12 10 15 18 19 18 18 21 19 11 8 6
4 12 13 3 19 33 24 18 18 13 6 4 8 9 6 10 11 11 14 13 14 20 21 24 27 26 32 38 32 24 22 21 23 19 10 12 16 11 15 23 14 6 7 5 3 3 5 11 10 5 7 11 8 7 9 8 3 2 7 8 5 4 -0 -2 0 2 6 9 9 10 6 5 12 12 8 12 9 3 5 11 15 20 23 22 16 13 14 12
Height
5885 5884 5884 5883 5883 5882 5882 5882 5882 5881 5881 5881 5881 5881 5880 5879 5879 5879 5879 5879 5879 5878 5878 5877 5877 5877 5877 5877 5878 5878 5879 5879 5880 5881 5881 5882 5884 5884 5885 5886 5887 5888 5888 5888 5889 5890 5892 5893 5894 5895 5895 5896 5896 5896 5896 5897 5897 5897 5899 5900 5900 5900 5898 5899 5902 5901 5901 5901 5901 5901 5901 5902 5902 5902 5902 5903 5903 5903 5903 5903 5902 5902 5902 5902 5902 5903 5903 5904
5883 5883 5882 5882 5881 5881 5880 5880 5880 5879 5879 5879 5879 5879 5879 5878 5878 5877 5877 5878 5877 5877 5877 5877 5876 5876 5876 5876 5876 5877 5877 5878 5879 5879 5880 5882 5882 5883 5884 5885 5885 5886 5887 5887 5888 5889 5890 5891 5893 5894 5894 5895 5895 5896 5896 5896 5896 5897 5899 5899 5900 5900 5898 5898 5901 5901 5901 5901 5901 5901 5901 5901 5901 5902 5902 5903 5903 5903 5903 5903 5902 5902 5902 5902 5902 5902 5903 5903
5881 5881 5880 5880 5879 5879 5878 5878 5878 5877 5877 5877 5877 5877 5876 5876 5876 5876 5876 5876 5876 5876 5875 5875 5875 5875 5875 5875 5875 5875 5875 5876 5877 5878 5879 5880 5881 5882 5883 5883 5884 5885 5886 5886 5886 5887 5888 5889 5891 5892 5893 5894 5895 5895 5895 5895 5896 5897 5898 5899 5899 5899 5898 5899 5901 5901 5901 5901 5901 5901 5901 5901 5901 5902 5902 5902 5902 5902 5902 5902 5902 5902 5902 5902 5902 5902 5902 5902
5879 5879 5878 5878 5877 5877 5876 5876 5875 5875 5875 5874 5874 5874 5874 5874 5874 5874 5874 5874 5874 5874 5874 5874 5874 5874 5874 5874 5873 5873 5874 5874 5875 5877 5878 5879 5879 5880 5881 5882 5883 5884 5885 5885 5885 5886 5886 5888 5889 5891 5892 5893 5894 5894 5895 5895 5895 5897 5898 5899 5898 5897 5897 5899 5901 5901 5901 5901 5901 5901 5901 5901 5901 5902 5902 5903 5903 5902 5902 5902 5902 5901 5901 5901 5901 5901 5901 5902
5877 5876 5876 5875 5875 5875 5874 5874 5873 5873 5872 5872 5872 5872 5872 5871 5871 5872 5872 5872 5872 5872 5872 5872 5872 5872 5872 5872 5872 5872 5872 5873 5874 5875 5876 5877 5878 5879 5879 5880 5881 5882 5883 5884 5884 5885 5886 5887 5888 5890 5891 5892 5893 5894 5894 5894 5895 5896 5897 5898 5898 5897 5897 5899 5900 5901 5901 5901 5901 5902 5902 5901 5901 5902 5902 5902 5902 5902 5902 5901 5901 5901 5901 5901 5901 5900 5900 5901
5875 5874 5874 5873 5873 5872 5872 5872 5871 5870 5870 5870 5870 5869 5869 5869 5869 5869 5870 5870 5870 5870 5870 5870 5870 5871 5871 5871 5871 5871 5871 5872 5872 5872 5873 5875 5876 5877 5878 5879 5880 5881 5882 5883 5883 5884 5885 5886 5887 5889 5891 5892 5893 5894 5893 5893 5894 5895 5896 5897 5897 5898 5898 5898 5900 5900 5900 5901 5901 5902 5902 5901 5902 5902 5902 5902 5902 5902 5901 5901 5901 5900 5900 5900 5900 5900 5900 5901
5872 5872 5871 5871 5870 5870 5870 5869 5869 5868 5868 5868 5867 5867 5867 5867 5867 5867 5867 5868 5868 5868 5868 5867 5868 5868 5869 5869 5869 5870 5870 5870 5870 5870 5871 5872 5874 5875 5876 5877 5878 5879 5880 5881 5882 5883 5884 5885 5886 5888 5889 5890 5892 5892 5892 5892 5893 5894 5895 5896 5897 5897 5898 5898 5899 5900 5900 5901 5901 5902 5902 5902 5902 5903 5902 5902 5902 5902 5902 5901 5901 5900 5900 5900 5900 5899 5899 5900
5869 5869 5868 5868 5868 5868 5867 5867 5866 5866 5866 5865 5865 5865 5864 5864 5864 5865 5865 5865 5865 5866 5865 5865 5866 5866 5867 5867 5868 5868 5868 5869 5869 5869 5869 5870 5871 5873 5873 5875 5876 5877 5878 5879 5880 5881 5882 5884 5885 5886 5887 5889 5890 5891 5891 5891 5892 5893 5894 5895 5896 5896 5897 5898 5899 5900 5900 5901 5901 5902 5902 5902 5903 5903 5903 5903 5903 5902 5902 5901 5901 5900 5900 5900 5900 5899 5899 5899
5866 5866 5865 5865 5865 5865 5864 5864 5864 5863 5863 5863 5862 5862 5862 5861 5862 5862 5862 5862 5863 5863 5863 5863 5863 5864 5864 5865 5866 5866 5866 5867 5867 5867 5868 5868 5869 5870 5871 5872 5874 5875 5876 5877 5878 5879 5881 5882 5883 5885 5886 5887 5888 5889 5889 5890 5891 5892 5892 5893 5895 5896 5897 5898 5899 5900 5900 5901 5901 5902 5902 5902 5903 5903 5903 5903 5902 5902 5902 5901 5901 5900 5900 5900 5900 5899 5899 5899
5863 5862 5862 5862 5861 5861 5861 5861 5860 5860 5860 5860 5860 5860 5859 5859 5859 5859 5859 5860 5860 5860 5860 5860 5861 5861 5861 5862 5863 5863 5865 5865 5865 5865 5866 5866 5867 5868 5869 5870 5871 5873 5874 5875 5876 5878 5879 5881 5882 5883 5884 5884 5886 5887 5888 5889 5890 5890 5891 5892 5894 5895 5896 5897 5899 5900 5900 5901 5901 5901 5902 5902 5903 5903 5903 5902 5902 5902 5901 5901 5901 5900 5900 5900 5900 5899 5899 5899
5859 5859 5858 5858 5858 5858 5857 5857 5857 5857 5857 5857 5857 5857 5857 5857 5856 5856 5856 5857 5857 5857 5857 5858 5858 5859 5859 5860 5861 5861 5863 5863 5863 5863 5864 5865 5865 5865 5866 5867 5869 5870 5872 5873 5874 5876 5877 5878 5880 5880 5881 5883 5885 5886 5887 5888 5888 5889 5890 5891 5893 5894 5895 5897 5898 5899 5899 5900 5901 5901 5901 5902 5902 5902 5902 5902 5902 5902 5901 5901 5900 5900 5900 5899 5899 5899 5899 5899
5855 5855 5854 5854 5854 5854 5854 5853 5853 5853 5854 5854 5854 5854 5854 5854 5854 5854 5854 5854 5854 5855 5855 5855 5855 5856 5856 5857 5857 5858 5860 5860 5860 5861 5862 5863 5863 5863 5864 5865 5866 5868 5869 5871 5872 5873 5874 5876 5876 5878 5880 5882 5884 5885 5886 5887 5887 5889 5889 5890 5892 5893 5895 5896 5897 5898 5898 5899 5900 5900 5901 5901 5901 5901 5901 5901 5901 5901 5901 5900 5899 5899 5898 5898 5898 5899 5899 5899
5851 5851 5850 5850 5850 5850 5850 5849 5849 5849 5850 5850 5850 5850 5851 5851 5851 5850 5851 5851 5851 5852 5852 5852 5853 5853 5854 5855 5854 5855 5857 5857 5858 5859 5860 5861 5861 5861 5862 5863 5864 5865 5867 5868 5870 5870 5871 5873 5874 5876 5878 5880 5882 5882 5883 5885 5886 5887 5888 5889 5890 5892 5894 5895 5896 5897 5898 5898 5899 5900 5900 5900 5900 5900 5900 5900 5900 5900 5900 5899 5899 5898 5897 5897 5897 5897 5898 5898
5847 5846 5846 5846 5846 5846 5846 5845 5845 5845 5845 5846 5847 5847 5847 5847 5847 5847 5848 5848 5848 5849 5849 5849 5850 5850 5852 5851 5851 5853 5854 5854 5856 5856 5857 5858 5859 5859 5860 5861 5862 5863 5865 5866 5867 5868 5869 5870 5872 5874 5875 5877 5879 5879 5881 5884 5885 5886 5887 5888 5889 5891 5893 5895 5896 5897 5897 5898 5898 5899 5899 5900 5900 5899 5899 5900 5899 5899 5899 5898 5898 5897 5896 5896 5896 5896 5897 5898
5842 5842 5841 5841 5841 5841 5841 5841 5841 5840 5841 5842 5842 5843 5843 5843 5844 5844 5844 5844 5845 5845 5846 5846 5846 5847 5849 5848 5848 5851 5851 5852 5853 5853 5855 5855 5856 5857 5858 5859 5860 5861 5862 5863 5864 5865 5867 5868 5870 5872 5873 5875 5877 5876 5880 5882 5883 5885 5886 5887 5889 5891 5893 5894 5894 5895 5896 5896 5897 5898 5898 5900 5900 5899 5898 5899 5898 5899 5898 5898 5898 5896 5895 5896 5897 5895 5896 5897
5837 5837 5836 5836 5836 5836 5836 5836 5836 5836 5836 5837 5838 5838 5838 5839 5839 5840 5840 5841 5841 5842 5842 5843 5843 5844 5845 5845 5846 5847 5848 5849 5849 5850 5852 5853 5853 5855 5856 5857 5857 5858 5859 5860 5862 5863 5864 5866 5868 5870 5871 5873 5874 5875 5879 5880 5881 5883 5884 5886 5888 5890 5892 5893 5892 5893 5895 5895 5896 5898 5898 5899 5900 5898 5897 5897 5897 5898 5897 5897 5897 5896 5896 5896 5897 5895 5894 5896
5832 5831 5830 5830 5830 5831 5831 5831 5831 5831 5831 5832 5832 5833 5833 5834 5834 5835 5836 5836 5837 5838 5838 5839 5840 5841 5842 5842 5842 5844 5845 5845 5846 5848 5849 5849 5850 5852 5853 5854 5855 5856 5857 5858 5859 5860 5862 5863 5865 5867 5868 5870 5872 5873 5876 5878 5879 5881 5882 5885 5887 5888 5890 5891 5891 5892 5893 5894 5895 5896 5897 5899 5899 5897 5896 5896 5896 5897 5896 5896 5896 5896 5896 5896 5897 5895 5894 5894
5826 5825 5825 5824 5824 5825 5825 5825 5825 5826 5825 5826 5827 5828 5828 5828 5829 5830 5831 5832 5833 5833 5834 5835 5836 5837 5838 5839 5839 5840 5842 5842 5843 5845 5845 5846 5847 5849 5850 5851 5852 5853 5854 5855 5856 5858 5859 5860 5862 5863 5864 5867 5869 5871 5874 5876 5878 5880 5881 5884 5886 5887 5888 5890 5891 5892 5892 5893 5894 5894 5896 5897 5897 5896 5895 5895 5895 5896 5896 5896 5896 5896 5895 5895 5896 5895 5894 5894
5821 5819 5819 5818 5818 5818 5818 5818 5819 5820 5820 5820 5820 5822 5822 5823 5823 5824 5826 5827 5827 5828 5828 5830 5833 5833 5833 5835 5835 5836 5839 5839 5840 5841 5842 5843 5844 5846 5847 5848 5849 5850 5851 5853 5854 5855 5856 5857 5857 5859 5861 5864 5868 5870 5873 5876 5877 5878 5880 5882 5884 5885 5887 5889 5891 5891 5891 5891 5892 5893 5894 5895 5896 5896 5895 5894 5894 5894 5895 5895 5895 5894 5894 5895 5894 5894 5896 5895
5815 5814 5813 5812 5811 5811 5811 5811 5812 5813 5814 5814 5814 5815 5816 5817 5817 5818 5821 5821 5821 5823 5823 5826 5829 5828 5829 5831 5831 5832 5835 5835 5836 5837 5838 5840 5841 5842 5843 5845 5847 5848 5849 5851 5851 5852 5853 5853 5855 5858 5861 5863 5866 5868 5871 5873 5874 5876 5878 5880 5882 5884 5886 5887 5888 5889 5889 5888 5890 5891 5892 5894 5895 5896 5896 5894 5892 5893 5893 5893 5894 5893 5893 5895 5894 5893 5895 5894
5809 5807 5807 5806 5805 5804 5804 5804 5805 5806 5807 5807 5808 5807 5809 5810 5810 5812 5815 5816 5816 5817 5818 5820 5823 5823 5825 5826 5827 5829 5830 5830 5831 5833 5835 5836 5837 5838 5840 5842 5844 5845 5847 5848 5848 5849 5850 5851 5854 5857 5858 5860 5863 5865 5867 5869 5871 5873 5875 5877 5879 5881 5883 5885 5885 5887 5886 5886 5888 5889 5890 5893 5894 5897 5899 5895 5891 5891 5892 5892 5892 5892 5892 5894 5893 5893 5893 5892
5802 5801 5800 5799 5798 5798 5797 5797 5797 5798 5799 5800 5801 5800 5801 5803 5803 5805 5807 5810 5811 5810 5813 5814 5816 5820 5820 5820 5823 5825 5824 5826 5828 5829 5831 5833 5833 5835 5837 5839 5841 5843 5844 5844 5844 5846 5848 5851 5853 5854 5855 5857 5859 5861 5863 5865 5867 5870 5871 5874 5876 5878 5881 5883 5884 5886 5884 5883 5886 5887 5888 5890 5892 5895 5897 5894 5891 5890 5890 5891 5891 5891 5891 5891 5891 5891 5892 5892
5795 5794 5793 5792 5791 5791 5791 5789 5790 5791 5792 5792 5793 5794 5794 5795 5796 5798 5799 5803 5805 5804 5806 5809 5810 5813 5814 5814 5818 5819 5819 5822 5824 5824 5827 5829 5830 5832 5833 5835 5837 5839 5839 5840 5843 5844 5847 5850 5850 5850 5851 5853 5855 5857 5859 5861 5863 5865 5867 5870 5873 5876 5878 5880 5883 5884 5883 5882 5884 5885 5885 5887 5889 5890 5890 5891 5892 5891 5888 5889 5889 5889 5889 5890 5890 5890 5890 5890
5788 5786 5785 5785 5784 5783 5784 5783 5782 5783 5784 5784 5785 5786 5787 5787 5788 5790 5791 5794 5799 5799 5799 5802 5804 5807 5809 5809 5811 5813 5815 5817 5818 5819 5822 5824 5827 5828 5829 5832 5834 5834 5836 5838 5840 5842 5845 5846 5845 5846 5848 5849 5851 5853 5855 5857 5859 5861 5863 5867 5870 5873 5875 5878 5881 5883 5883 5881 5881 5882 5882 5882 5885 5887 5888 5889 5891 5890 5886 5887 5888 5887 5888 5888 5889 5889 5890 5889
5780 5778 5777 5777 5776 5775 5775 5776 5774 5774 5775 5776 5777 5778 5780 5780 5780 5782 5784 5785 5791 5794 5793 5794 5798 5800 5802 5802 5804 5809 5810 5811 5812 5814 5818 5820 5822 5824 5825 5828 5829 5830 5833 5836 5837 5838 5841 5841 5841 5843 5845 5846 5847 5849 5851 5854 5856 5858 5860 5863 5867 5869 5871 5874 5878 5881 5881 5878 5876 5878 5878 5879 5882 5884 5885 5886 5888 5888 5885 5885 5886 5886 5886 5885 5885 5887 5888 5888
5772 5769 5768 5768 5768 5767 5766 5766 5766 5766 5766 5766 5768 5770 5771 5772 5773 5775 5776 5777 5781 5786 5787 5788 5790 5792 5795 5796 5800 5803 5803 5805 5807 5809 5813 5815 5817 5819 5820 5823 5825 5827 5830 5832 5832 5834 5836 5837 5838 5841 5842 5843 5844 5845 5848 5851 5853 5854 5857 5861 5863 5864 5866 5868 5872 5875 5875 5874 5874 5876 5875 5877 5880 5881 5882 5883 5884 5887 5885 5882 5884 5885 5885 5885 5883 5884 5885 5886
5762 5759 5758 5758 5758 5759 5757 5756 5757 5757 5757 5757 5759 5761 5762 5764 5766 5767 5769 5770 5772 5775 5779 5782 5783 5784 5787 5790 5793 5794 5795 5799 5803 5803 5807 5811 5812 5814 5816 5818 5821 5823 5826 5827 5827 5830 5834 5834 5835 5837 5839 5840 5841 5843 5846 5848 5849 5851 5854 5857 5858 5860 5863 5865 5867 5869 5868 5869 5871 5873 5874 5875 5876 5878 5880 5881 5881 5886 5883 5879 5882 5883 5883 5885 5884 5884 5883 5885
5750 5748 5746 5744 5746 5747 5746 5747 5747 5747 5747 5747 5749 5751 5753 5755 5757 5759 5762 5762 5762 5765 5770 5774 5776 5777 5778 5783 5787 5788 5789 5793 5797 5799 5802 5805 5806 5808 5811 5813 5817 5820 5822 5823 5824 5828 5832 5831 5832 5835 5836 5837 5840 5842 5845 5845 5846 5849 5851 5853 5856 5858 5860 5862 5864 5864 5864 5865 5866 5869 5872 5871 5871 5874 5877 5877 5879 5882 5879 5876 5879 5881 5882 5884 5883 5882 5882 5883
5739 5737 5734 5732 5732 5732 5732 5734 5735 5736 5736 5737 5738 5740 5742 5745 5747 5750 5751 5753 5755 5756 5760 5764 5767 5769 5771 5774 5778 5781 5783 5785 5790 5793 5794 5798 5801 5803 5806 5809 5812 5815 5817 5818 5820 5825 5827 5827 5829 5832 5833 5835 5839 5840 5841 5842 5844 5847 5849 5851 5852 5853 5856 5858 5859 5860 5862 5860 5860 5865 5868 5867 5868 5872 5873 5873 5875 5877 5875 5875 5878 5879 5881 5882 5882 5881 5882 5883
5729 5726 5723 5721 5720 5718 5718 5719 5720 5723 5723 5725 5727 5728 5731 5733 5737 5739 5740 5745 5749 5747 5751 5755 5757 5760 5763 5766 5769 5773 5776 5778 5781 5785 5787 5792 5795 5797 5800 5803 5806 5808 5811 5812 5814 5819 5821 5822 5825 5826 5829 5833 5835 5835 5836 5838 5842 5844 5845 5846 5847 5849 5853 5855 5855 5857 5857 5853 5855 5861 5865 5864 5864 5868 5870 5870 5872 5873 5873 5874 5875 5876 5878 5880 5880 5880 5882 5884
5719 5716 5713 5710 5708 5706 5705 5704 5705 5707 5709 5712 5714 5716 5719 5721 5724 5727 5729 5736 5739 5737 5741 5743 5744 5750 5755 5757 5761 5764 5768 5771 5774 5777 5780 5784 5787 5789 5791 5794 5797 5800 5803 5805 5808 5813 5815 5817 5819 5821 5825 5829 5829 5830 5831 5835 5838 5840 5840 5841 5843 5847 5850 5851 5851 5852 5850 5848 5853 5859 5861 5861 5860 5863 5868 5869 5870 5871 5871 5871 5873 5875 5876 5879 5880 5877 5880 5884
5712 5708 5705 5701 5698 5696 5694 5693 5692 5692 5693 5697 5699 5703 5707 5707 5711 5716 5720 5726 5725 5724 5730 5730 5733 5741 5745 5749 5753 5756 5760 5763 5766 5770 5773 5776 5780 5783 5785 5789 5793 5795 5799 5802 5805 5810 5811 5814 5817 5818 5822 5825 5824 5825 5828 5831 5833 5835 5836 5837 5840 5843 5845 5846 5847 5847 5846 5848 5853 5857 5858 5857 5857 5861 5866 5867 5869 5869 5869 5869 5870 5874 5874 5876 5878 5876 5879 5882
5707 5703 5699 5694 5690 5687 5684 5682 5680 5680 5680 5681 5684 5689 5692 5694 5699 5704 5709 5711 5707 5711 5719 5720 5724 5733 5737 5743 5747 5750 5754 5757 5760 5763 5766 5769 5773 5777 5781 5785 5789 5792 5797 5800 5802 5805 5807 5809 5811 5812 5817 5820 5820 5822 5824 5827 5830 5831 5832 5833 5836 5839 5840 5842 5844 5845 5847 5848 5852 5854 5854 5853 5856 5860 5862 5865 5867 5867 5867 5867 5869 5873 5873 5872 5874 5875 5877 5880
5702 5698 5694 5689 5685 5680 5676 5672 5669 5668 5668 5669 5671 5674 5678 5682 5687 5692 5695 5693 5691 5700 5707 5709 5717 5725 5728 5735 5739 5742 5746 5749 5753 5755 5757 5761 5764 5768 5773 5777 5781 5786 5791 5793 5795 5799 5800 5801 5805 5808 5814 5817 5816 5819 5822 5824 5826 5828 5830 5832 5835 5838 5839 5841 5843 5844 5846 5848 5849 5850 5849 5851 5855 5858 5859 5862 5864 5864 5866 5867 5867 5871 5871 5869 5871 5874 5876 5878
5697 5693 5689 5684 5680 5673 5668 5663 5660 5658 5657 5658 5659 5661 5665 5670 5676 5681 5679 5675 5678 5687 5694 5701 5711 5716 5719 5726 5730 5733 5736 5740 5744 5747 5749 5753 5757 5762 5766 5771 5776 5779 5783 5787 5789 5793 5795 5798 5804 5808 5812 5815 5815 5817 5820 5821 5823 5826 5828 5829 5832 5837 5839 5840 5841 5843 5845 5847 5847 5845 5846 5851 5854 5854 5856 5859 5861 5862 5865 5866 5865 5867 5869 5867 5869 5874 5876 5877
5693 5689 5683 5678 5673 5667 5660 5654 5650 5648 5648 5649 5649 5652 5656 5660 5666 5668 5660 5659 5667 5675 5685 5695 5701 5705 5711 5717 5721 5724 5728 5733 5736 5739 5742 5746 5750 5756 5760 5765 5769 5773 5777 5782 5785 5788 5790 5795 5800 5801 5806 5810 5810 5813 5816 5817 5820 5823 5823 5826 5833 5837 5836 5837 5839 5841 5843 5843 5844 5843 5845 5849 5850 5851 5853 5855 5858 5860 5861 5863 5863 5865 5867 5866 5867 5871 5874 5875
5688 5685 5679 5674 5669 5662 5654 5646 5641 5640 5641 5642 5642 5644 5647 5650 5653 5650 5643 5647 5655 5662 5675 5684 5687 5693 5700 5708 5715 5717 5719 5725 5728 5731 5736 5739 5743 5748 5752 5757 5762 5765 5771 5777 5781 5783 5786 5790 5793 5794 5799 5803 5806 5810 5812 5813 5817 5818 5820 5826 5831 5831 5830 5833 5836 5838 5838 5839 5841 5843 5844 5846 5847 5848 5851 5852 5854 5856 5857 5860 5861 5862 5864 5864 5865 5868 5872 5874
5683 5679 5674 5668 5663 5656 5647 5639 5634 5633 5635 5637 5637 5639 5641 5641 5640 5636 5632 5637 5644 5651 5663 5672 5676 5681 5686 5696 5705 5704 5707 5715 5719 5722 5729 5733 5735 5738 5743 5746 5750 5756 5763 5768 5772 5775 5779 5785 5787 5788 5793 5798 5802 5805 5805 5806 5811 5813 5817 5823 5824 5823 5826 5829 5831 5833 5834 5836 5839 5841 5843 5843 5844 5847 5849 5850 5851 5852 5853 5856 5858 5859 5860 5862 5864 5866 5870 5872
5677 5672 5667 5662 5657 5651 5642 5634 5629 5627 5629 5632 5633 5633 5633 5630 5627 5627 5627 5632 5639 5645 5654 5663 5667 5670 5675 5682 5687 5689 5695 5703 5708 5714 5723 5727 5725 5728 5732 5734 5738 5747 5754 5758 5764 5770 5775 5781 5785 5783 5785 5792 5795 5797 5798 5800 5805 5809 5811 5815 5817 5819 5823 5826 5828 5831 5833 5835 5838 5840 5841 5842 5843 5845 5846 5847 5848 5850 5851 5852 5854 5856 5858 5861 5863 5865 5868 5870
5672 5667 5663 5658 5653 5647 5638 5631 5627 5625 5625 5626 5627 5627 5625 5623 5622 5623 5624 5626 5631 5634 5642 5652 5656 5659 5665 5667 5670 5675 5681 5689 5697 5704 5713 5717 5715 5717 5722 5726 5733 5742 5747 5751 5760 5768 5768 5774 5782 5779 5776 5783 5788 5790 5795 5797 5800 5804 5805 5807 5811 5815 5819 5822 5824 5827 5830 5833 5836 5838 5841 5842 5841 5841 5843 5845 5846 5847 5849 5850 5852 5854 5856 5859 5862 5864 5866 5868
5669 5664 5658 5654 5650 5644 5637 5631 5628 5626 5624 5623 5623 5622 5621 5620 5620 5620 5619 5620 5623 5624 5631 5640 5645 5649 5654 5655 5658 5661 5665 5677 5689 5693 5699 5704 5703 5705 5710 5717 5725 5734 5741 5747 5755 5761 5760 5765 5776 5773 5768 5777 5785 5789 5793 5794 5795 5801 5803 5805 5808 5812 5816 5818 5819 5823 5827 5830 5833 5835 5839 5841 5838 5838 5841 5843 5844 5845 5846 5848 5850 5851 5854 5857 5859 5861 5864 5866
5666 5661 5656 5651 5647 5642 5636 5632 5628 5626 5624 5622 5621 5619 5617 5617 5617 5616 5616 5617 5618 5619 5623 5630 5636 5640 5644 5649 5652 5652 5656 5668 5678 5683 5689 5691 5689 5694 5703 5710 5717 5725 5734 5742 5748 5754 5755 5758 5768 5768 5765 5773 5782 5784 5788 5790 5791 5796 5799 5802 5805 5809 5813 5815 5817 5821 5824 5828 5830 5832 5835 5837 5835 5836 5840 5840 5841 5843 5844 5846 5847 5850 5853 5855 5857 5860 5862 5865
5661 5657 5653 5648 5644 5639 5635 5631 5628 5625 5623 5620 5619 5617 5615 5615 5614 5613 5614 5613 5613 5614 5616 5621 5627 5631 5635 5640 5643 5644 5649 5657 5664 5673 5679 5678 5678 5687 5697 5704 5710 5718 5725 5733 5740 5745 5748 5752 5760 5764 5764 5769 5775 5778 5782 5785 5787 5788 5792 5796 5800 5804 5809 5812 5815 5818 5821 5826 5829 5829 5832 5834 5833 5835 5837 5837 5838 5840 5842 5844 5846 5848 5851 5853 5856 5859 5859 5861
5657 5652 5649 5645 5640 5636 5632 5629 5626 5623 5621 5618 5616 5615 5613 5611 5611 5610 5610 5609 5609 5609 5610 5613 5618 5622 5626 5631 5634 5636 5643 5650 5658 5664 5667 5668 5672 5681 5690 5695 5701 5708 5715 5722 5727 5731 5736 5743 5751 5757 5760 5763 5767 5770 5773 5777 5779 5781 5786 5792 5796 5800 5805 5808 5811 5814 5818 5823 5826 5827 5830 5830 5830 5833 5835 5835 5836 5838 5840 5843 5845 5847 5850 5852 5854 5854 5854 5858
5654 5648 5644 5641 5637 5632 5629 5626 5623 5620 5618 5615 5613 5612 5610 5608 5607 5607 5606 5606 5605 5606 5606 5607 5610 5614 5618 5623 5627 5631 5637 5645 5651 5653 5655 5660 5666 5673 5682 5688 5692 5698 5706 5714 5719 5722 5729 5735 5742 5750 5755 5758 5761 5764 5767 5772 5775 5778 5782 5787 5792 5797 5800 5803 5806 5809 5813 5818 5822 5824 5827 5826 5827 5832 5834 5833 5835 5836 5838 5841 5843 5845 5848 5848 5847 5849 5852 5857
5650 5645 5641 5637 5633 5630 5626 5623 5620 5617 5615 5612 5609 5608 5607 5605 5603 5603 5603 5602 5602 5602 5602 5603 5605 5608 5611 5615 5620 5626 5634 5641 5644 5645 5648 5653 5657 5663 5671 5679 5686 5693 5702 5710 5714 5718 5724 5729 5734 5742 5751 5755 5758 5761 5763 5767 5772 5775 5778 5782 5786 5792 5795 5797 5801 5804 5809 5814 5818 5820 5823 5823 5824 5829 5831 5832 5834 5835 5836 5839 5840 5843 5844 5843 5843 5848 5852 5855
5645 5641 5638 5634 5631 5627 5623 5620 5617 5615 5612 5609 5607 5605 5604 5602 5601 5600 5599 5598 5598 5598 5598 5600 5601 5603 5606 5608 5612 5618 5627 5634 5637 5639 5642 5644 5647 5654 5664 5673 5681 5689 5696 5702 5706 5712 5719 5724 5729 5737 5743 5747 5750 5753 5756 5760 5766 5771 5775 5778 5782 5787 5790 5792 5796 5800 5805 5811 5814 5817 5820 5820 5821 5826 5829 5830 5832 5832 5834 5837 5837 5839 5840 5840 5843 5848 5851 5853
5642 5637 5633 5630 5627 5624 5620 5617 5614 5612 5609 5607 5605 5603 5602 5600 5598 5597 5596 5595 5595 5595 5595 5596 5596 5597 5600 5604 5607 5612 5619 5625 5629 5630 5631 5634 5640 5650 5661 5667 5674 5680 5686 5691 5696 5703 5711 5718 5725 5733 5738 5740 5742 5745 5749 5755 5760 5765 5769 5773 5777 5781 5785 5788 5792 5797 5802 5807 5811 5814 5817 5819 5820 5824 5827 5829 5829 5830 5833 5834 5834 5836 5839 5840 5843 5847 5849 5851
5639 5634 5630 5626 5622 5620 5617 5613 5611 5609 5607 5605 5603 5602 5600 5598 5596 5594 5593 5592 5592 5592 5592 5592 5592 5593 5595 5599 5602 5607 5611 5616 5619 5621 5624 5630 5637 5646 5653 5656 5660 5667 5674 5680 5688 5696 5705 5713 5718 5724 5731 5735 5737 5740 5744 5748 5753 5758 5763 5769 5773 5776 5780 5785 5790 5794 5798 5803 5807 5810 5813 5816 5818 5820 5823 5826 5827 5827 5829 5830 5830 5833 5836 5837 5840 5843 5846 5848
5635 5631 5627 5623 5619 5617 5614 5611 5608 5606 5605 5603 5602 5600 5598 5597 5595 5593 5591 5590 5589 5588 5588 5587 5588 5589 5591 5594 5597 5601 5603 5606 5609 5614 5619 5625 5631 5637 5640 5643 5648 5657 5667 5676 5684 5693 5701 5705 5709 5714 5721 5727 5731 5735 5739 5743 5747 5753 5759 5764 5767 5771 5776 5781 5785 5790 5794 5798 5803 5806 5809 5812 5815 5817 5819 5822 5823 5823 5825 5827 5828 5830 5832 5833 5837 5840 5842 5844
5632 5628 5625 5621 5617 5614 5611 5608 5606 5604 5603 5601 5600 5598 5596 5595 5593 5591 5590 5588 5587 5586 5585 5584 5584 5586 5587 5589 5592 5595 5598 5600 5604 5608 5613 5618 5623 5629 5635 5640 5647 5657 5665 5672 5680 5688 5692 5695 5701 5708 5714 5720 5725 5730 5735 5739 5743 5748 5752 5756 5760 5765 5771 5775 5779 5784 5788 5793 5798 5803 5804 5807 5811 5813 5815 5818 5821 5822 5824 5826 5828 5829 5830 5832 5834 5836 5837 5840
5629 5625 5622 5618 5615 5611 5609 5606 5604 5602 5600 5599 5597 5596 5594 5593 5591 5590 5588 5586 5585 5584 5583 5582 5582 5583 5584 5586 5588 5591 5594 5597 5600 5602 5606 5611 5617 5625 5632 5638 5645 5652 5658 5663 5671 5677 5682 5689 5698 5703 5709 5716 5722 5726 5731 5733 5735 5740 5746 5751 5756 5760 5765 5768 5772 5778 5784 5789 5794 5799 5800 5803 5807 5809 5812 5816 5819 5822 5823 5825 5826 5828 5829 5831 5831 5833 5835 5837